User: anonymous   Login
Location: Ballingbuur
(53.0000°N, 5.7667°E)
Time: 08:11:49
(UTC+00:00)
Language:

AISSAT 1 - Orbit

View from above orbital plane
View from above orbital plane
View from above satellite
View from above satellite

Ground track
Ground track

The orbit data is extracted from the following two-line orbital elements,

1 36797U 10035C   21166.91637205  .00000182  00000-0  27267-4 0  9999
2 36797  98.2170 332.8613 0009717 283.6228  76.3904 14.86504868591983
Epoch (UTC): 15 June 2021 21:59:34
Eccentricity: 0.0009717
inclination: 98.2170°
perigee height: 602 km
apogee height: 615 km
right ascension of ascending node: 332.8613°
argument of perigee: 283.6228°
revolutions per day: 14.86504868
mean anomaly at epoch: 76.3904°
orbit number at epoch: 59198

The dashed part of the orbit path shows where the satellite is in the earth's shadow,  

DLR